{"data":{"norad_id":47271,"intl_designator":"2020-100P","name":"ONEWEB-0125","alt_names":[],"object_type":"PAYLOAD","status":"ACTIVE","operator":null,"country":"UK","launch_date":"2020-12-18","launch_site_code":"VOSTO","launch_vehicle":null,"mission":null,"orbit_class":"UNKNOWN","rcs_meters":null,"size_class":null,"mass_kg":null,"dimensions":null,"purposes":["comms"],"wikipedia_slug":null,"has_3d_model":false,"image_url":null,"decayed_at":null,"tle_current":{"epoch":"2026-05-25T01:47:39.562080Z","epoch_age_seconds":68249,"freshness":"FRESH","line1":"1 47271U 20100P   26145.07476345 -.00000379  00000+0 -10889-2 0  9996","line2":"2 47271  87.8961 355.2504 0002102  85.9082 274.2287 13.12443387261606","mean_motion":13.12443387,"eccentricity":0.0002102,"inclination_deg":87.8961,"raan_deg":355.2504,"arg_perigee_deg":85.9082,"mean_anomaly_deg":274.2287,"bstar":-0.0010889,"rev_number":26160,"period_min":109.71901830307,"perigee_km":1212.125989921,"apogee_km":1215.31760736,"semimajor_km":7591.8587986405,"source":"CELESTRAK","updated_at":"2026-05-25T13:38:22.381769Z"}}}